Location: Fatehalanka
(16.3139°N, 80.8379°E)
Time: 11:11:16
(UTC+00:00)

Cosmos 1954 Rocket - Pass Details

Date: 14 May 2026
Orbit: 748 x 776 km, 74.0° (Epoch: 5 June)

Event Time Altitude Azimuth Distance (km) Brightness Sun altitude
Rises 13:54:30 0° 350° (N) 3,187 7.7 -13.1°
Reaches altitude 10° 13:56:53 10° 353° (N) 2,261 6.9 -13.6°
Maximum altitude 14:01:58 69° 76° (ENE) 799 3.9 -14.7°
Enters shadow 14:06:13 15° 158° (SSE) 1,938 5.7 -15.6°
